Regional Weather Roundup
Issued by NWS Huntsville, AL

Home | Current Version | Previous Version | Text Only | Print | Product List | Glossary On
Versions: 1 2 3 4 5 6 7 8 9 10 11 12 13 14 15 16 17 18 19 20 21 22 23 24 25 26 27 28 29 30 31 32 33 34 35 36 37 38 39 40 41 42 43 44 45
000
ASUS44 KHUN 271510
RWRHUN

WEATHER ROUNDUP FOR THE TENNESSEE VALLEY
NATIONAL WEATHER SERVICE HUNTSVILLE AL
900 AM CST SAT DEC 27 2014

ALZ001>004-271600-
NORTHWEST ALABAMA

CITY           SKY/WX    TMP DP  RH WIND       PRES   REMARKS
COURTLAND HCN    N/A     52 N/A N/A SE7         N/A
RUSSELLVILLE     N/A     48 N/A N/A MISG        N/A
SHOALS AIRPORT LGT RAIN  50  43  77 S9        30.27R
SHOALS TVA RES   N/A     50 N/A N/A MISG        N/A
$$

ALZ005>007-016-271600-
NORTH CENTRAL ALABAMA

CITY           SKY/WX    TMP DP  RH WIND       PRES   REMARKS
CULLMAN AG STN   N/A     45 N/A N/A S3          N/A
DECATUR AP     CLOUDY    50  41  71 S13       30.29R
HUNTSVILLE AP  CLOUDY    51  41  68 SE13      30.29S
HUN NWS/UAH      N/A     50  38  65 SE8         N/A
MERIDIANVILLE  CLOUDY    50  34  53 SE7       30.29S
REDSTONE ARSN  CLOUDY    50  41  71 SE8       30.29R
VINEMONT AP    LGT RAIN  45  43  94 S10G17    30.31R
$$

ALZ008>010-271600-
NORTHEAST ALABAMA

CITY           SKY/WX    TMP DP  RH WIND       PRES   REMARKS
ALBERTVILLE    DRIZZLE   45  45 100 E3        30.31R
FORT PAYNE     CLOUDY    48  32  53 E6        30.33S
SCOTTSBORO AP  CLOUDY    45  43  93 CALM      30.34R
VALLEY HEAD      N/A     50 N/A N/A MISG        N/A
$$

TNZ076-096-097-271600-
SOUTHEASTERN MIDDLE TENNESSEE

CITY           SKY/WX    TMP DP  RH WIND       PRES   REMARKS
TULLAHOMA      CLOUDY    50  36  57 SE7       30.27R
WINCHESTER     CLOUDY    52  36  54 SE9       30.29R
$$

...SURROUNDING SITES...

CITY           SKY/WX    TMP DP  RH WIND       PRES   REMARKS
ATLANTA        CLOUDY    48  38  68 CALM      30.37R
ANNISTON       LGT RAIN  46  41  82 N7        30.34S
BIRMINGHAM     CLOUDY    47  45  93 CALM      30.34R
CHATTANOOGA    CLOUDY    45  40  82 CALM      30.34R
CORINTH        DRIZZLE   50  45  81 SE10G18   30.21R
DALTON         CLOUDY    46  37  71 CALM      30.35R
GADSDEN        CLOUDY    45  39  81 SE3       30.33S
GOLDEN TRNGL   PTSUNNY   48  46  93 SE12      30.22F
HALEYVILLE     PTSUNNY   45  44  96 S7G16     30.29F
JACKSON TN     CLOUDY    52  45  77 S7G16     30.17S
LEWISBURG      CLOUDY    52  39  61 S10       30.25R
MEMPHIS        CLOUDY    56  50  80 S14       30.13F
MURFREESBORO   CLOUDY    53  38  56 S8        30.25R
NASHVILLE      CLOUDY    53  40  61 S5        30.25R
OXFORD MS      CLOUDY    48  46  93 SE12G17   30.18S FOG
ROME           CLOUDY    44  39  82 S3        30.36R
SAVANNAH       CLOUDY    48  45  87 S7        30.23S
TUPELO         CLOUDY    49  46  90 MISG      30.22S
TUSCALOOSA     LGT RAIN  50  47  89 E5        30.30S
$$

...GULF COAST WEATHER...

CITY           SKY/WX    TMP DP  RH WIND       PRES   REMARKS
GULFPORT       CLOUDY    65  62  90 E13       30.17F
PASCAGOULA     CLOUDY    61  58  90 NE5       30.20S
MOBILE         CLOUDY    59  54  83 E7        30.23R
GULF SHORES    PTSUNNY   65  61  85 E14       30.21S
PENSACOLA      PTSUNNY   60  53  77 E9        30.22
DESTIN         CLOUDY    57  51  80 NE5       30.28R
PANAMA CITY    CLOUDY    58  56  95 E5        30.29R
APPALACHICOLA  PTSUNNY   62  57  83 E10       30.27R
$$



USA.gov is the U.S. government's official web portal to all federal, state and local government web resources and services.